Погода в Нукуалофе

Тонга     21°08′10″S   175°12′22″W
темп.,
°C
ветер,
м/с
пор.,
м/с
влажн.,
%
обл.,
%
осадки,
мм/ч
давл.,
гПа
погр.,
м
15 апреля, чт
чт1501:00+24ююв336834 0.0 1011912
04:00+24юв22687 0.0 1009756
07:00+24ю22697 0.0 1010819
10:00+24сз11675 0.0 1011653
13:00+25з336834 0.0 1010786
16:00+25зюз45693 0.0 1009801
19:00+25юз567123 0.0 1010928
22:00+26зюз567332 0.0 1011880
16 апреля, пт
пт1601:00+25юз558032 0.4 1011660
04:00+25ю8877100 1.0 1010937
07:00+25ю767194 1.1 10121101
10:00+25ю666795 0.0 10131118
13:00+25ю44650 0.0 1012919
16:00+25ююв55620 0.0 1011935
19:00+25ююв55620 0.0 10121116
22:00+25ююв54623 0.0 10141258
17 апреля, сб
сб1701:00+24ююв446018 0.0 10131245
04:00+24ю43608 0.0 10121230
07:00+24ююв44608 0.0 10131244
10:00+24ююв44609 0.0 10151257
13:00+24ююв43580 0.0 10131151
16:00+24юв44594 0.0 10111225
19:00+24юв55595 0.0 10131278
22:00+25вюв66605 0.0 10141359
18 апреля, вс
вс1801:00+24вюв55608 0.0 10131319
04:00+24вюв446022 0.0 10121267
07:00+24вюв446055 0.0 10141349
10:00+24вюв55603 0.0 10151219
13:00+25вюв56604 0.0 10141213
16:00+25вюв56600 0.0 10121225
19:00+25вюв67623 0.0 10141244
22:00+25вюв77647 0.0 10151289
19 апреля, пн
пн1901:00+25вюв776522 0.0 10141297
04:00+25в77649 0.0 10141253
07:00+26вюв776496 0.0 10151387
10:00+26в77636 0.0 10161341
13:00+26вюв566627 0.0 10151159
16:00+26в776550 0.1 10141254
19:00+27в78664 0.1 10141302
22:00+26вюв887611 0.0 1016935